FW5441 Weather Reports


Display with metric or nautical units.
time (UTC)temp
F
wind
direction
speed
MPH
gust
MPH
rain 1hr
in
rain 24hr
in
rain mn
in
humidity
%
barometer
mb
20191208084429 -1 0 0.0 0.0 0.00 0.09 0.00 54 1025.5
20191208083529 -1 0 0.0 0.0 0.00 0.09 0.00 54 1025.7
20191208082629 -1 0 0.0 0.0 0.00 0.09 0.00 54 1026.0
20191208081729 -1 0 0.0 0.0 0.00 0.09 0.00 54 1025.7
20191208080830 -1 0 0.0 0.0 0.00 0.09 0.00 54 1025.7
20191208075929 -1 0 0.0 0.0 0.00 0.09 0.00 54 1025.4
20191208075029 -1 0 0.0 0.0 0.00 0.09 0.00 54 1025.5
20191208074129 0 0 0.0 0.0 0.00 0.09 0.00 55 1025.3
20191208073229 0 0 0.0 0.0 0.00 0.09 0.00 55 1025.3
20191208072329 0 0 0.0 0.0 0.00 0.09 0.00 55 1025.0
20191208071430 0 0 0.0 0.0 0.00 0.09 0.00 55 1025.1
20191208070529 0 0 0.0 0.0 0.00 0.09 0.00 55 1025.0
20191208065629 0 0 0.0 0.0 0.00 0.09 0.00 55 1024.5
20191208064729 1 0 0.0 0.0 0.00 0.09 0.00 59 1024.4
20191208063829 1 0 0.0 0.0 0.00 0.09 0.00 60 1024.5
20191208062929 2 0 0.0 0.0 0.00 0.09 0.00 60 1024.6
20191208062029 2 1 0.0 1.0 0.00 0.09 0.00 60 1024.2
20191208061129 2 0 0.0 0.0 0.00 0.09 0.00 60 1024.2
20191208060229 2 0 0.0 0.0 0.00 0.09 0.00 60 1024.3
20191208055329 2 0 0.0 0.0 0.00 0.09 0.00 60 1024.1
20191208054429 2 1 0.0 1.0 0.00 0.09 0.00 60 1024.2
20191208053529 2 1 0.0 1.0 0.00 0.09 0.00 60 1024.2
20191208052629 3 1 0.0 1.0 0.00 0.09 0.00 60 1024.2
20191208051729 3 1 0.0 1.0 0.00 0.09 0.00 60 1024.2
20191208050829 3 1 0.0 1.0 0.00 0.09 0.00 60 1024.0
20191208045929 4 0 0.0 0.0 0.00 0.09 0.09 60 1024.0
20191208045029 5 0 0.0 0.0 0.00 0.09 0.09 60 1024.0
20191208044129 5 1 0.0 1.0 0.00 0.09 0.09 60 1023.9
20191208043229 4 1 0.0 1.0 0.00 0.09 0.09 59 1024.4
20191208042329 5 1 0.0 1.0 0.00 0.09 0.09 59 1024.4
20191208041429 5 1 0.0 1.0 0.00 0.09 0.09 59 1024.0
20191208040529 5 1 0.0 1.0 0.00 0.09 0.09 59 1024.1
20191208035629 5 1 0.0 1.0 0.00 0.09 0.09 59 1024.1
20191208034729 5 1 0.0 1.0 0.00 0.09 0.09 59 1023.9
20191208033829 6 1 0.0 1.0 0.00 0.09 0.09 59 1024.1
20191208032929 6 0 0.0 0.0 0.00 0.09 0.09 59 1023.9
20191208032029 6 0 0.0 0.0 0.00 0.09 0.09 58 1023.8
20191208031129 6 0 0.0 0.0 0.00 0.09 0.09 58 1024.1
20191208030229 6 1 0.0 1.0 0.00 0.09 0.09 57 1023.9
20191208025329 7 0 0.0 0.0 0.00 0.09 0.09 58 1023.8
20191208024429 8 0 0.0 0.0 0.00 0.09 0.09 57 1023.9
20191208023529 8 0 0.0 0.0 0.00 0.09 0.09 56 1024.0
20191208022629 8 0 0.0 0.0 0.00 0.09 0.09 57 1023.9
20191208021729 8 0 0.0 0.0 0.00 0.09 0.09 56 1023.7
20191208020829 9 1 0.0 1.0 0.00 0.09 0.09 56 1023.5
20191208015929 9 0 0.0 0.0 0.00 0.09 0.09 55 1023.6
20191208015029 10 1 0.0 1.0 0.00 0.09 0.09 59 1023.7
20191208014129 10 1 0.0 1.0 0.00 0.09 0.09 59 1023.5
20191208013229 11 1 0.0 1.0 0.00 0.09 0.09 58 1023.5
20191208012329 11 0 0.0 0.0 0.00 0.09 0.09 58 1023.8
20191208011429 12 1 0.0 1.0 0.00 0.09 0.09 57 1024.2
20191208010529 12 0 0.0 0.0 0.00 0.09 0.09 57 1023.9
20191208005629 13 0 0.0 0.0 0.00 0.09 0.09 57 1023.9
20191208004729 14 0 0.0 0.0 0.00 0.09 0.09 56 1023.6
20191208003829 14 1 0.0 1.0 0.00 0.09 0.09 56 1023.7
20191208002929 14 1 0.0 1.0 0.00 0.09 0.09 55 1023.6
20191208002029 15 1 0.0 1.0 0.00 0.09 0.09 54 1023.2
20191208001129 16 1 0.0 1.0 0.00 0.09 0.09 53 1023.3
20191208000229 17 0 0.0 0.0 0.00 0.09 0.09 53 1023.3
20191207235329 16 0 0.0 0.0 0.00 0.09 0.09 53 1023.2
20191207234429 17 1 0.0 1.0 0.00 0.09 0.09 52 1022.9
20191207233529 17 1 0.0 1.0 0.00 0.09 0.09 51 1022.8
20191207232629 17 0 0.0 0.0 0.00 0.09 0.09 49 1022.8
20191207231729 18 1 0.0 1.0 0.00 0.09 0.09 49 1022.4
20191207230829 20 0 0.0 0.0 0.00 0.09 0.09 53 1022.4
20191207225929 21 0 0.0 0.0 0.00 0.09 0.09 51 1022.4
20191207225029 22 0 0.0 0.0 0.00 0.09 0.09 51 1022.2
20191207224129 22 0 0.0 0.0 0.00 0.09 0.09 50 1022.0
20191207223229 23 0 0.0 0.0 0.00 0.09 0.09 49 1022.0
20191207222329 23 1 0.0 1.0 0.00 0.09 0.09 48 1021.8
20191207221429 24 0 0.0 0.0 0.00 0.09 0.09 45 1021.6
20191207220529 24 0 0.0 0.0 0.00 0.09 0.09 43 1021.6
20191207215629 25 1 0.0 1.0 0.00 0.09 0.09 43 1021.4
20191207214729 26 0 0.0 0.0 0.00 0.09 0.09 41 1021.3
20191207213829 26 1 0.0 1.0 0.00 0.09 0.09 41 1021.3
20191207212929 27 1 0.0 1.0 0.00 0.09 0.09 40 1021.2
20191207212029 28 1 0.0 2.0 0.00 0.09 0.09 44 1020.9
20191207211129 28 1 0.0 1.0 0.00 0.09 0.09 44 1021.0
20191207210229 28 0 0.0 0.0 0.00 0.09 0.09 44 1020.7
20191207205329 29 1 0.0 1.0 0.00 0.09 0.09 43 1020.7
20191207204429 29 1 0.0 2.0 0.00 0.09 0.09 43 1020.5
20191207203529 29 1 0.0 3.0 0.00 0.09 0.09 42 1020.4
20191207202629 29 1 0.0 1.0 0.00 0.09 0.09 41 1020.2
20191207201729 30 1 0.0 1.0 0.00 0.09 0.09 40 1020.2
20191207200829 30 1 0.0 3.0 0.00 0.09 0.09 40 1020.4
20191207195929 30 1 0.0 3.0 0.00 0.09 0.09 38 1019.8
20191207195029 30 1 0.0 3.0 0.00 0.09 0.09 38 1019.8
20191207194129 31 1 1.0 4.0 0.01 0.09 0.09 38 1019.7
20191207193229 31 1 2.0 4.0 0.01 0.09 0.09 39 1019.7
20191207192329 30 1 1.0 4.0 0.01 0.09 0.09 39 1019.8
20191207191429 31 1 2.0 4.0 0.01 0.09 0.09 38 1019.6
20191207190529 32 1 2.0 8.0 0.02 0.09 0.09 36 1019.5
20191207185629 33 1 3.0 6.0 0.02 0.09 0.09 38 1019.4
20191207184729 33 1 0.0 5.0 0.04 0.09 0.09 40 1019.2
20191207183829 33 1 2.0 5.0 0.02 0.08 0.08 41 1019.1
20191207182929 32 1 0.0 3.0 0.04 0.08 0.08 45 1019.3
20191207182029 32 1 0.0 4.0 0.04 0.08 0.08 50 1019.2
20191207181129 31 1 0.0 3.0 0.05 0.08 0.08 51 1019.1
20191207180229 31 1 1.0 4.0 0.04 0.07 0.07 53 1018.9
20191207175329 30 1 1.0 4.0 0.04 0.07 0.07 53 1019.1
20191207174429 30 1 1.0 2.0 0.04 0.06 0.06 54 1019.1
20191207173529 30 1 0.0 3.0 0.02 0.05 0.05 56 1019.0
20191207172629 29 1 0.0 2.0 0.02 0.05 0.05 57 1019.2
20191207171729 28 1 0.0 2.0 0.02 0.04 0.04 57 1019.2
20191207170829 28 1 0.0 2.0 0.02 0.04 0.04 57 1019.2
20191207165929 28 1 1.0 2.0 0.02 0.04 0.04 56 1019.3
20191207165029 28 1 0.0 5.0 0.02 0.04 0.04 56 1019.3
20191207164129 29 1 2.0 4.0 0.01 0.02 0.02 55 1019.4
20191207163229 30 1 0.0 4.0 0.01 0.02 0.02 56 1019.3
20191207162329 29 1 0.0 2.0 0.01 0.02 0.02 58 1019.4
20191207161429 29 1 1.0 3.0 0.00 0.01 0.01 59 1019.3
20191207160529 28 1 1.0 4.0 0.00 0.01 0.01 61 1019.5
20191207155629 28 1 2.0 3.0 0.00 0.01 0.01 62 1019.3
20191207154729 28 1 0.0 4.0 0.00 0.01 0.01 59 1019.4
20191207153829 27 1 2.0 3.0 0.01 0.01 0.01 60 1019.4
20191207152929 26 1 1.0 2.0 0.01 0.01 0.01 61 1019.5
20191207152029 26 1 1.0 4.0 0.01 0.01 0.01 63 1019.6
20191207151129 25 1 1.0 4.0 0.01 0.01 0.01 65 1019.5
20191207150229 24 1 0.0 4.0 0.01 0.01 0.01 65 1019.4
20191207145329 23 1 1.0 4.0 0.01 0.01 0.01 67 1019.6
20191207144429 24 1 2.0 4.0 0.01 0.01 0.01 69 1019.3
20191207143529 23 1 2.0 4.0 0.00 0.00 0.00 70 1019.2
20191207142629 23 1 0.0 3.0 0.00 0.00 0.00 71 1019.2
20191207141729 22 1 1.0 4.0 0.00 0.00 0.00 72 1018.9
20191207140829 21 1 0.0 2.0 0.00 0.00 0.00 74 1018.9
20191207135929 20 1 0.0 1.0 0.00 0.00 0.00 75 1018.6
20191207135029 18 1 0.0 1.0 0.00 0.00 0.00 70 1018.5
20191207134129 17 1 0.0 1.0 0.00 0.00 0.00 69 1018.5
20191207133229 16 1 0.0 1.0 0.00 0.00 0.00 70 1018.4
20191207132329 16 1 0.0 1.0 0.00 0.00 0.00 70 1018.3
20191207131429 16 1 0.0 1.0 0.00 0.00 0.00 70 1018.2
20191207130529 16 1 0.0 1.0 0.00 0.00 0.00 70 1018.1
20191207125629 15 1 0.0 1.0 0.00 0.00 0.00 70 1018.2
20191207124729 15 1 0.0 1.0 0.00 0.00 0.00 69 1018.5
20191207123829 15 1 0.0 1.0 0.00 0.00 0.00 70 1018.3
20191207122929 15 1 0.0 1.0 0.00 0.00 0.00 70 1018.4
20191207122029 15 0 0.0 0.0 0.00 0.00 0.00 70 1018.0
20191207121129 15 0 0.0 0.0 0.00 0.00 0.00 70 1018.0
20191207120229 15 0 0.0 0.0 0.00 0.00 0.00 70 1017.8
20191207115329 15 0 0.0 0.0 0.00 0.00 0.00 69 1017.7
20191207114429 15 0 0.0 0.0 0.00 0.00 0.00 69 1017.5
20191207113529 15 1 0.0 1.0 0.00 0.00 0.00 69 1017.6
20191207112629 15 1 0.0 1.0 0.00 0.00 0.00 69 1017.3
20191207111729 15 1 0.0 1.0 0.00 0.00 0.00 69 1017.1
20191207110829 15 1 0.0 1.0 0.00 0.00 0.00 69 1017.0
20191207105929 15 1 0.0 1.0 0.00 0.00 0.00 70 1017.0
20191207105029 15 1 0.0 1.0 0.00 0.00 0.00 69 1016.9
20191207104129 15 1 0.0 1.0 0.00 0.00 0.00 70 1016.7
20191207103229 15 1 0.0 1.0 0.00 0.00 0.00 69 1016.4
20191207102329 15 1 0.0 1.0 0.00 0.00 0.00 69 1016.5
20191207101429 14 1 0.0 1.0 0.00 0.00 0.00 69 1016.4
20191207100529 14 1 0.0 1.0 0.00 0.00 0.00 69 1016.0
20191207095629 14 1 0.0 1.0 0.00 0.00 0.00 68 1015.9
20191207094729 15 1 0.0 1.0 0.00 0.00 0.00 68 1015.9
20191207093829 15 1 0.0 1.0 0.00 0.00 0.00 67 1015.4
20191207092929 15 1 0.0 1.0 0.00 0.00 0.00 67 1015.5
20191207092029 15 1 0.0 1.0 0.00 0.00 0.00 67 1015.5
20191207091129 15 1 0.0 1.0 0.00 0.00 0.00 67 1015.2
20191207090229 15 1 0.0 1.0 0.00 0.00 0.00 67 1015.2
20191207085329 16 0 0.0 0.0 0.00 0.00 0.00 67 1015.0